Location: Newark
(40.9833°N, 0.0333°W)
Time: 20:15:12
(UTC+00:00)

SR - All Passes

Search period start: 28 October 2020 00:00
Search period end: 07 November 2020 00:00
Orbit: 581 x 874 km, 66.7° (Epoch: 27 October)

Date Brightness Start Highest point End Pass type
(mag) Time Alt. Az. Time Alt. Az. Time Alt. Az.
28 Oct - 00:50:29 10° SE 00:52:28 13° ESE 00:54:26 10° ENE night (unlit)
28 Oct - 02:29:46 10° SW 02:33:54 54° WNW 02:38:11 10° NNE visible
28 Oct - 09:28:44 10° N 09:31:46 16° NE 09:34:56 10° E daylight
28 Oct - 11:09:19 10° NNW 11:14:23 87° WSW 11:19:53 10° SSE daylight
28 Oct - 12:54:28 10° W 12:55:48 11° WSW 12:57:10 10° WSW daylight
29 Oct - 01:40:02 10° SSW 01:44:12 65° ESE 01:48:30 10° NE night (unlit)
29 Oct - 03:24:13 10° W 03:26:43 15° NW 03:29:16 10° N visible
29 Oct - 10:19:45 10° NNW 10:24:37 48° NE 10:29:52 10° SE daylight
29 Oct - 12:02:24 10° WNW 12:06:25 23° WSW 12:10:41 10° SSW daylight
30 Oct - 00:51:06 10° S 00:54:41 27° ESE 00:58:21 10° NE night (unlit)
30 Oct - 02:32:56 10° WSW 02:36:37 28° NW 02:40:25 10° N visible
30 Oct - 09:30:28 10° N 09:34:41 26° NE 09:39:11 10° ESE daylight
30 Oct - 11:12:01 10° NW 11:16:54 46° WSW 11:22:09 10° S daylight
31 Oct - 00:03:43 10° SE 00:05:20 12° ESE 00:06:59 10° E night (unlit)
31 Oct - 01:42:33 10° SW 01:46:44 59° WNW 01:51:04 10° NNE night (unlit)
31 Oct - 08:41:40 10° N 08:44:34 15° NE 08:47:36 10° E daylight
31 Oct - 10:22:09 10° NNW 10:27:15 88° ENE 10:32:46 10° SSE daylight
31 Oct - 12:06:46 10° W 12:08:42 12° WSW 12:10:41 10° SW daylight
01 Nov - 00:52:54 10° SSW 00:57:03 59° ESE 01:01:20 10° NE night (unlit)
01 Nov - 02:36:50 10° W 02:39:30 16° NW 02:42:15 10° N night (unlit)
01 Nov - 09:32:36 10° NNW 09:37:28 46° NE 09:42:42 10° SE daylight
01 Nov - 11:15:08 10° NW 11:19:19 25° WSW 11:23:44 10° SSW daylight
02 Nov - 00:04:04 10° SSE 00:07:33 25° ESE 00:11:07 10° NE night (unlit)
02 Nov - 01:45:40 10° WSW 01:49:25 30° NW 01:53:20 10° N night (unlit)
02 Nov - 08:43:21 10° N 08:47:31 25° NE 08:51:56 10° ESE daylight
02 Nov - 10:24:49 10° NW 10:29:46 50° WSW 10:35:06 10° S daylight
02 Nov - 23:17:03 10° ESE 23:18:13 11° ESE 23:19:23 10° E night (unlit)
03 Nov - 00:55:22 10° SW 00:59:34 64° WNW 01:03:56 10° NNE night (unlit)
03 Nov - 07:54:36 10° N 07:57:23 15° NE 08:00:16 10° ENE daylight
03 Nov - 09:34:58 10° NNW 09:40:06 83° ENE 09:45:39 10° SSE daylight
03 Nov - 11:19:13 10° WNW 11:21:36 13° WSW 11:24:03 10° SW daylight
04 Nov - 00:05:47 10° SSW 00:09:53 55° ESE 00:14:10 10° NE night (unlit)
04 Nov - 01:49:28 10° W 01:52:18 17° NW 01:55:13 10° N night (unlit)
04 Nov - 08:45:28 10° NNW 08:50:18 43° NE 08:55:31 10° SE daylight
04 Nov - 10:27:52 10° NW 10:32:12 27° WSW 10:36:46 10° SSW daylight
04 Nov - 23:17:01 10° SSE 23:20:25 24° ESE 23:23:53 10° NE night (unlit)
05 Nov - 00:58:24 10° WSW 01:02:14 32° NW 01:06:14 10° NNE night (unlit)
05 Nov - 07:56:15 10° N 08:00:21 24° NE 08:04:42 10° ESE daylight
05 Nov - 09:37:37 10° NW 09:42:38 53° WSW 09:48:03 10° S daylight
05 Nov - 22:30:57 10° ESE 22:31:06 10° ESE 22:31:15 10° ESE night (unlit)
06 Nov - 00:08:10 10° SW 00:12:23 70° WNW 00:16:47 10° NNE night (unlit)
06 Nov - 07:07:33 10° N 07:10:11 14° NE 07:12:54 10° ENE daylight
06 Nov - 08:47:49 10° NNW 08:52:58 79° ENE 08:58:32 10° SSE daylight
06 Nov - 10:31:46 10° WNW 10:34:30 14° WSW 10:37:19 10° SW daylight
06 Nov - 23:18:39 10° S 23:22:44 50° ESE 23:26:59 10° NE night (unlit)
